WetterOnline ( https://www.wetteronline.de )

Wetter aktuell Langweiler

Aktuelles Wetter: Trier/Petrisberg (273m)

6-stündlich | Neueste Meldungen
Ortszeit Temperatur Wetter
Sa, 18.09. 20:00 17.5° C wolkenlos
Sa, 18.09. 14:00 20.7° C wolkenlos
Sa, 18.09. 8:00 9.0° C Nebel
Sa, 18.09. 2:00 11.2° C fast wolkenlos
Fr, 17.09. 20:00 16.6° C wolkenlos
Fr, 17.09. 14:00 20.0° C wolkig
Fr, 17.09. 8:00 12.0° C bedeckt
Fr, 17.09. 2:00 11.6° C Nebel
Ortszeit Temperatur Wetter
Sa, 18.09. 21:00 16.1° C wolkig
Sa, 18.09. 20:50 16.1° C wolkig
Sa, 18.09. 20:40 16.0° C leicht bewölkt
Sa, 18.09. 20:30 16.6° C leicht bewölkt
Sa, 18.09. 20:20 16.6° C leicht bewölkt
Sa, 18.09. 20:10 16.3° C fast wolkenlos
Sa, 18.09. 20:00 17.5° C wolkenlos
Sa, 18.09. 19:30 18.3° C leicht bewölkt
Sa, 18.09. 19:00 19.3° C wolkig
Sa, 18.09. 18:30 20.5° C leicht bewölkt
Sa, 18.09. 18:00 21.3° C wolkig
Ortszeit Relative Feuchte Sichtweite
Sa, 18.09. 20:00 72% 35 km
Sa, 18.09. 14:00 60% 40 km
Sa, 18.09. 8:00 99% 100 m
Sa, 18.09. 2:00 94% 35 km
Fr, 17.09. 20:00 72% 50 km
Fr, 17.09. 14:00 52% 50 km
Fr, 17.09. 8:00 99% 2.0 km
Fr, 17.09. 2:00 99% 0.3 km
Ortszeit Relative Feuchte Sichtweite
Sa, 18.09. 21:00 80% 40 km
Sa, 18.09. 20:50 80% -
Sa, 18.09. 20:40 80% -
Sa, 18.09. 20:30 77% 35 km
Sa, 18.09. 20:20 77% -
Sa, 18.09. 20:10 77% -
Sa, 18.09. 20:00 72% 35 km
Sa, 18.09. 19:30 68% 40 km
Sa, 18.09. 19:00 64% 45 km
Sa, 18.09. 18:30 59% 60 km
Sa, 18.09. 18:00 56% 45 km
Ortszeit Niederschlagsmenge Niederschlagsart
Sa, 18.09. 20:00 0.0 l/m2 in 12 Std. -
Sa, 18.09. 14:00 0.0 l/m2 in 6 Std. -
Sa, 18.09. 8:00 0.0 l/m2 in 12 Std. -
Sa, 18.09. 2:00 0.0 l/m2 in 6 Std. -
Fr, 17.09. 20:00 0.0 l/m2 in 12 Std. -
Fr, 17.09. 14:00 0.0 l/m2 in 6 Std. -
Fr, 17.09. 8:00 0.0 l/m2 in 12 Std. -
Fr, 17.09. 2:00 0.0 l/m2 in 6 Std. -
Ortszeit Niederschlagsmenge Niederschlagsart
Sa, 18.09. 21:00 0.0 l/m2 in 1 Std. -
Sa, 18.09. 20:50 keine Meldung -
Sa, 18.09. 20:40 keine Meldung -
Sa, 18.09. 20:30 0.0 l/m2 in 1 Std. -
Sa, 18.09. 20:20 keine Meldung -
Sa, 18.09. 20:10 keine Meldung -
Sa, 18.09. 20:00 0.0 l/m2 in 1 Std. -
Sa, 18.09. 19:30 0.0 l/m2 in 1 Std. -
Sa, 18.09. 19:00 0.0 l/m2 in 1 Std. -
Sa, 18.09. 18:30 0.0 l/m2 in 1 Std. -
Sa, 18.09. 18:00 0.0 l/m2 in 1 Std. -
Ortszeit Stärke Spitze Richtung
km/h Bft. km/h Grad Sektor
Sa, 18.09. 20:00 13 3 24 50° NO
Sa, 18.09. 14:00 14 3 25 50° NO
Sa, 18.09. 8:00 6 1 15 20° N
Sa, 18.09. 2:00 9 2 11 20° N
Fr, 17.09. 20:00 4 1 14 70° O
Fr, 17.09. 14:00 9 2 17 20° N
Fr, 17.09. 8:00 2 1 6 350° N
Fr, 17.09. 2:00 4 1 7 230° SW
Ortszeit Stärke Spitze Richtung
km/h Bft. km/h Grad Sektor
Sa, 18.09. 21:00 4 1 14 100° O
Sa, 18.09. 20:50 4 1 - 100° O
Sa, 18.09. 20:40 6 1 - 60° NO
Sa, 18.09. 20:30 9 2 13 60° NO
Sa, 18.09. 20:20 9 2 - 60° NO
Sa, 18.09. 20:10 9 2 - 50° NO
Sa, 18.09. 20:00 13 3 19 50° NO
Sa, 18.09. 19:30 14 3 18 50° NO
Sa, 18.09. 19:00 14 3 22 60° NO
Sa, 18.09. 18:30 13 3 20 50° NO
Sa, 18.09. 18:00 13 3 19 50° NO
Ortszeit Untergrenze Bedeckung Gattung
total tief tief mittel hoch
Sa, 18.09. 20:00 - 0/8 0/8 - - -
Sa, 18.09. 14:00 - 0/8 0/8 - - -
Sa, 18.09. 8:00 <30 m 8/8 0/8 - - -
Sa, 18.09. 2:00 9000 m 1/8 0/8 - - -
Fr, 17.09. 20:00 9000 m 0/8 0/8 - - -
Fr, 17.09. 14:00 1800 m 7/8 7/8 - - -
Fr, 17.09. 8:00 <30 m 8/8 0/8 - - -
Fr, 17.09. 2:00 <30 m 7/8 0/8 - - -
Ortszeit Bedeckungsgrad in Achtel und Wolkenuntergrenze
Sa, 18.09. 21:00 7(7200m) 7(8700m)
Sa, 18.09. 20:50 7(7200m) 7(8700m)
Sa, 18.09. 20:40 5(7500m) 6(8700m)
Sa, 18.09. 20:30 3(9000m) 4(9000m)
Sa, 18.09. 20:20 3(9000m)
Sa, 18.09. 20:10 2(9000m)
Sa, 18.09. 20:00 keine Wolken
Sa, 18.09. 19:30 2(1800m)
Sa, 18.09. 19:00 1(1500m) 6(8100m) 8(9000m)
Sa, 18.09. 18:30 2(7200m) 4(8700m) 6(9000m)
Sa, 18.09. 18:00 3(1800m) 6(7200m) 7(9000m)
Ortszeit Luftdruck NN (hPa) Tendenz (hPa in 3 Std.)
Sa, 18.09. 20:00 1014 - 0,5
Sa, 18.09. 14:00 1016 - 0,9
Sa, 18.09. 8:00 1018 + 0,4
Sa, 18.09. 2:00 1017 + 0,4
Fr, 17.09. 20:00 1015 - 0,4
Fr, 17.09. 14:00 1016 - 0,7
Fr, 17.09. 8:00 1018 - 0,3
Fr, 17.09. 2:00 1019 + 0,3
Ortszeit Luftdruck NN (hPa) Tendenz (hPa in 3 Std.)
Sa, 18.09. 21:00 1015 + 0,1
Sa, 18.09. 20:50 1015 keine Meldung
Sa, 18.09. 20:40 1015 keine Meldung
Sa, 18.09. 20:30 1015 - 0,2
Sa, 18.09. 20:20 1015 keine Meldung
Sa, 18.09. 20:10 1015 keine Meldung
Sa, 18.09. 20:00 1014 - 0,5
Sa, 18.09. 19:30 1014 - 0,8
Sa, 18.09. 19:00 1014 - 1,0
Sa, 18.09. 18:30 1014 - 0,9
Sa, 18.09. 18:00 1014 - 1,0
Ortszeit Schneehöhe (cm)
Sa, 18.09. 20:00 -
Sa, 18.09. 14:00 -
Sa, 18.09. 8:00 -
Sa, 18.09. 2:00 -
Fr, 17.09. 20:00 -
Fr, 17.09. 14:00 -
Fr, 17.09. 8:00 -
Fr, 17.09. 2:00 -
Ortszeit Schneehöhe (cm)
Sa, 18.09. 21:00 -
Sa, 18.09. 20:50 -
Sa, 18.09. 20:40 -
Sa, 18.09. 20:30 -
Sa, 18.09. 20:20 -
Sa, 18.09. 20:10 -
Sa, 18.09. 20:00 -
Sa, 18.09. 19:30 -
Sa, 18.09. 19:00 -
Sa, 18.09. 18:30 -
Sa, 18.09. 18:00 -
Link zu dieser Seite / Seite empfehlen

Das Wetter in ...